cliquez pour ajouter le site Runraid à vos favoris  English version (google)  Retour à l'accueil Ecrire à l'auteur du site Runraid : Michel Jourdan


 Visitez La Boutique 



Les prochaines courses


Les derniers résultats

cliquez pour visualiser la page complète relatant la chronologie des éruptions du Piton de la Fournaise
éruptions Piton de la Fournaise


Ile de La Réunion

 Diagonale des Fous 

Ecrire au créateur du site : Michel Jourdan
Contact


2019-12-20 - Relais des Marrons

Pour consulter le palmarès d'un coureur, un clic sur son nom !

Vous avez des remarques, corrections, ... sur ces résultats , un clic sur --> pour me transmettre toute information concernant les classements


Relais des Marrons - 2019 : classement des 70 finishers
Place Nom Temps Cat. Club Sexe Clt/cat.
Place Nom Temps Cat. Club Sexe Clt/cat.
1 ACEN 1 01:09:49 SENIO M 4
2 CAPP1 01:12:43 SENIO M 25
3 GeNeRATION COSPI 01:13:08 SENIO M 39
4 ENTENTE JEUNES 01:13:53 ENTEN M 38
5 TEAM KALOU 1 01:15:24 MASTE M 64
6 ACSGS2 01:16:26 ENTEN M 9
7 TCSA 1 ELITE 01:16:31 SENIO M 58
8 CTBP MASTER 1 01:16:39 MASTE M 29
9 ACBP 2 01:16:59 MASTE M 3
10 CAPP MASTER M 01:17:40 MASTE M 23
11 TEAM KALOU 2 01:19:51 SENIO M 65
12 ASAECB 1 01:19:59 ENTEN M 13
13 CAPC 3 01:20:09 SENIO M 75
14 COPAINS DE LOUEST 01:20:27 SENIO M 27
15 BENEDICTINE 1 01:21:16 SENIO M 16
16 ACEN JEUNE 01:21:41 SENIO M 6
17 DENIV MASTER M 01:22:40 MASTE M 33
18 T.P.C. 01:23:19 MASTE M 52
19 ACBP 1 01:24:02 MASTE M 2
20 SAMSORA TONIQUE 01:24:59 ENTEN M 51
21 ACEN TRAILEUR 01:25:34 SENIO M 7
22 LES LASQUARTS 01:25:48 SENIO M 73
23 CTBP MIXTE 01:27:28 MIXTE X 31
24 CAPOSS FILLES 01:28:38 SENIO F 1ere F 19
25 TEAM KOLOSS 01:28:50 MIXTE X 56
26 POMPIERS DE LEST 01:30:40 ENTRE M 44
27 TCSA 2 MIXTE 1 01:31:37 MIXTE X 59
28 ACEN FILLES 01:31:51 SENIO F 2 F 5
29 AJAC 2 01:32:12 SENIO M 69
30 ASSCC 01:32:15 ENTEN M 70
31 BENEDICTINE 2 01:32:35 SENIO M 17
32 CAPOSS MIXTE 01:33:00 MIXTE X 21
33 DENIV MIXTE A 01:33:19 MIXTE X 34
34 CAPOSS HOMMES 2 01:34:55 SENIO M 20
35 CAPP MIXTE 01:35:53 MIXTE X 24
36 DENIV SENIOR 01:36:13 SENIO M 37
37 ACSGS3 01:36:16 MIXTE X 10
38 CTBP MASTER 2 01:36:24 MASTE M 30
39 ASAECB 2 01:36:40 ENTEN M 14
40 CAPP FILLE 01:37:19 SENIO F 3 F 22
41 T.P.C.2 01:37:39 SENIO F 4 F 53
42 AAM 01:38:28 SENIO M 1
43 POMPIERS SALINE 01:38:39 ENTRE M 45
44 DENIV FEMININE 01:39:02 SENIO F 5 F 32
45 L UNION 01:39:26 ENTRE F 40
46 CAPOSS 1 01:39:28 SENIO M 18
47 POMPIERS SAINTE SUZANNE 01:39:35 ENTRE M 74
48 TEAM SERGIO 1 01:40:01 MIXTE X 66
49 TEAM DODO SUD 1 01:40:42 MIXTE X 54
50 TEAM DODO SUD 2 01:42:00 MIXTE X 55
51 DENIV MIXTE B 01:42:18 MIXTE X 35
52 ACVSS 2 MIXTE L 01:42:47 MIXTE X 12
53 ACVSS 1 MIXTE L 01:42:56 MIXTE X 11
54 CAPC 1 01:44:20 MIXTE X 62
55 LES 4 AS 3 01:46:25 MIXTE X 43
56 SAMSORA MIXTE 2 01:46:34 MIXTE X 50
57 SAMSORA MIXTE 01:47:06 MIXTE X 49
58 CAPC 2 01:47:18 MIXTE X 63
59 AJAC 1 01:49:29 SENIO F 68
60 DENIV MIXTE C 01:49:46 MIXTE X 36
61 TEAM LA COUR 01:50:02 ENTEN M 57
62 ASAECB 3 01:50:03 SENIO M 15
63 TEAM SERGIO 2 01:52:05 MIXTE X 67
64 TCSA 4 MIXTE 3 01:52:33 MIXTE X 61
65 CTBP FILLE 01:53:14 SENIO F 28
66 SAMSORA FILLES 01:53:25 SENIO F 48
67 LES 4 AS 1 01:56:23 MIXTE X 41
68 CCSS 01:58:32 SENIO M 26
69 TCSA 3 MIXTE 2 02:01:10 MIXTE X 60
70 LES 4 AS 2 02:07:18 MIXTE X 42


ReferencementCe site est listé dans la catégorie Sport : Sports extrêmes Dictionnaire
| Accueil | La Réunion  Vue du ciel | Météo | Cyclones | Volcan | Cirques de Mafate , Cilaos , Salazie | Photos Randonnées | Randonnées Réunion: Randos Espiègle , Courses montagne | Diagonale des Fous |  Marathon des Sables | Voyages Les stats du site | Fonds écran | Plan du site | Blog de runraid | Galerie photos Sport Réunion |